Skip Page Navigation
NASA JPL Caltech
NASA Logo - Jet Propulsion Laboratory + View the NASA Portal
+ Center for Near-Earth Object Studies
JPL Home Earth Solar System Stars & Galaxies Technology
JPL Solar System Dynamics
BODIES ORBITS EPHEMERIDES TOOLS PHYSICAL DATA DISCOVERY FAQ SITE MAP
IMPORTANT: The SSD Announcement email list is now available. Major changes are coming in the near future, including possible hostname and/or URL changes. To be notified of such changes, subscribe to this email list.

Please visit this page for more details.


JPL Small-Body Database Browser
Search: [ help ]  
413687 (2005 XR34)
Classification: Main-belt Asteroid          SPK-ID: 2413687
Ephemeris | Orbit Diagram | Orbital Elements | Mission Design | Physical Parameters | Discovery Circumstances ]

[ show orbit diagram ]
Orbital Elements at Epoch 2458600.5 (2019-Apr-27.0) TDB
Reference: JPL 10 (heliocentric ecliptic J2000)
 Element Value Uncertainty (1-sigma)   Units 
e .07795813863199097 8.2039e-08  
a 2.777755964283811 4.1847e-08 au
q 2.561207279734334 2.5256e-07 au
i .4324205131015484 8.1642e-06 deg
node 143.1905616384732 0.00097591 deg
peri 262.6021035202463 0.00097795 deg
M 353.2486242987729 6.1686e-05 deg
tp 2458632.212416416671
(2019-May-28.71241642)
0.00029003 TDB
period 1690.984240134421
4.63
3.8212e-05
1.046e-07
d
yr
n .2128937641496781 4.8108e-09 deg/d
Q 2.994304648833288 4.5109e-08 au
  Orbit Determination Parameters
   # obs. used (total)      102  
   data-arc span      5157 days (14.12 yr)  
   first obs. used      2004-08-22  
   last obs. used      2018-10-05  
   planetary ephem.      DE431  
   SB-pert. ephem.      SB431-N16  
   condition code      0  
   norm. resid. RMS      .61285  
   source      ORB  
   producer      Otto Matic  
   solution date      2019-Jul-14 06:07:08  

Additional Information
 Earth MOID = 1.56993 au 
 Jupiter MOID = 2.29819 au 
 T_jup = 3.330 
[ show covariance matrix ]

Ephemeris | Orbit Diagram | Orbital Elements | Mission Design | Physical Parameters | Discovery Circumstances ]

Physical Parameter Table
Parameter Symbol Value Units Sigma Reference Notes
absolute magnitude H 17.2   n/a MPO455946  

413687 (2005 XR34)          Discovered 2005-Nov-26 by Spacewatch at Kitt Peak
Reference: Last Updated: 2014-11-10
Ephemeris | Orbit Diagram | Orbital Elements | Mission Design | Physical Parameters | Discovery Circumstances ]
ABOUT SSD CREDITS/AWARDS PRIVACY/COPYRIGHT GLOSSARY LINKS
FirstGov
(server date/time)  
NASA Home Page
Site Manager:   Ryan S. Park
Webmaster  Alan B. Chamberlin